Regional Weather Roundup
Issued by NWS

Home | Current Version | Previous Version | Text Only | Print | Product List | Glossary Off
Versions: 1 2 3 4 5 6 7 8 9 10 11 12 13 14 15 16 17 18 19 20 21 22 23 24 25 26 27 28 29 30 31 32 33 34 35 36 37 38 39 40 41 42 43 44 45 46 47 48 49 50

000
ASUS43 KDMX 170706
RWRIA

WEATHER ROUNDUP FOR IOWA
NATIONAL WEATHER SERVICE DES MOINES IA
100 AM CST SAT FEB 17 2018

NOTE: "FAIR" INDICATES FEW OR NO CLOUDS BELOW 12,000 FEET WITH NO
SIGNIFICANT WEATHER AND/OR OBSTRUCTIONS TO VISIBILITY.

* - THESE STATIONS ARE NOT NWS STATIONS...THUS NOT UNDER NWS
QUALITY CONTROL.  THEY ALSO DO NOT REPORT WEATHER SUCH
AS PRECIPITATION OR FOG.

IAZ001>003-012>014-020>022-031>034-043>046-170800-
   NORTHWEST IOWA

CITY           SKY/WX    TMP DP  RH WIND       PRES   REMARKS
CARROLL *      CLOUDY    25  14  63 S16       30.04F WCI  12
CHEROKEE *     CLOUDY    24  14  65 S14G20    29.98F WCI  12
DENISON *      CLOUDY    25  14  63 S13G18    30.04F WCI  13
LE MARS *      CLOUDY    25  16  68 S14G24    29.95F WCI  13
ORANGE CITY *  CLOUDY    25  18  74 S15       29.94F WCI  12
SHELDON *      CLOUDY    25  16  68 S20G28    29.92F WCI  11
SIOUX CITY     CLOUDY    28  15  58 S17       29.99F WCI  16
SPENCER        CLOUDY    24  14  65 S18       29.96F WCI  10
STORM LAKE *   CLOUDY    21  14  73 S14       29.99F WCI   8
$$

IAZ055>058-069>071-079>083-090>094-170800-
   SOUTHWEST IOWA

CITY           SKY/WX    TMP DP  RH WIND       PRES   REMARKS
ATLANTIC *     CLOUDY    27  14  59 S10       30.07F WCI  17
AUDUBON *      CLOUDY    27  12  54 S8G18     30.05F WCI  18
CLARINDA *     CLOUDY    27  18  69 S6        30.11F WCI  20
COUNCIL BLFS * CLOUDY    28  16  59 SE8       30.03F WCI  20
CRESTON *      CLOUDY    23  10  58 S12       30.09F WCI  12
HARLAN  *      CLOUDY    25  14  63 S13       30.08F WCI  13
LAMONI         MOCLDY    24   7  48 S8        30.11F WCI  15
RED OAK *      CLOUDY    28  14  54 S9        30.08F WCI  20
SHENANDOAH *   CLOUDY    28  14  54 S13       30.08F WCI  18
$$

IAZ047>049-059>061-072>074-084-170800-
   CENTRAL IOWA

CITY           SKY/WX    TMP DP  RH WIND       PRES   REMARKS
AMES           CLOUDY    17  10  74 SE6       30.11F WCI   9
ANKENY *       CLOUDY    21  10  63 S3        30.13F
BOONE *        CLOUDY    23  12  63 S8        30.08F WCI  14
CHARITON *     PTCLDY    23   9  54 S7        30.12F WCI  15
DES MOINES     CLOUDY    22  10  60 S9        30.11F WCI  12
GRINNELL*      CLOUDY    19  11  72 SE12      30.14F WCI   6
KNOXVILLE *    CLOUDY    21   7  53 SE6       30.12F WCI  14
MARSHALLTOWN   CLOUDY    19  10  68 S10       30.12F WCI   7
NEWTON *       CLOUDY    18  10  73 S9        30.13F WCI   6
PELLA *        CLOUDY    20  10  64 SE7       30.16F WCI  11
PERRY *        FAIR      21  15  78 SE8       30.09F WCI  12
$$

IAZ004>006-015-016-023>025-035-036-170800-
   NORTH CENTRAL IOWA

CITY           SKY/WX    TMP DP  RH WIND       PRES   REMARKS
ALGONA *       CLOUDY    21 N/A N/A S16       30.00F WCI   7
CLARION *      CLOUDY    19  18  93 S15       30.05F WCI   5
ESTHERVILLE    CLOUDY    19  13  77 S15       29.96F WCI   5
FORT DODGE *   CLOUDY    23  15  71 S16       30.05F WCI  10
MASON CITY     CLOUDY    20  10  65 S13       30.05F WCI   7
FOREST CITY *  FAIR      23  14  68 S14G22    30.02F WCI  11
WEBSTER CITY * CLOUDY    19  12  73 S9        30.05F WCI   9
IOWA FALLS *   FAIR      19  12  74 S12       30.09F WCI   6
$$

IAZ007>011-017>019-026>030-037>042-050>054-066-170800-
   NORTHEAST IOWA

CITY           SKY/WX    TMP DP  RH WIND       PRES   REMARKS
CEDAR RAPIDS   FAIR      17  10  74 S8        30.15F WCI   7
CHARLES CITY * CLOUDY    18   9  68 S12       30.08F WCI   5
CLINTON *      FAIR      14   9  80 S7        30.22F WCI   4
DECORAH *      FAIR      14   7  73 S8        30.08F WCI   3
DUBUQUE        FAIR      13   6  74 S12       30.14F WCI  -1
MONTICELLO *   FAIR      16   9  73 S9        30.17F WCI   4
OELWEIN *      CLOUDY    14   9  79 S10       30.13S WCI   1
WATERLOO       FAIR      16   9  74 S8        30.13S WCI   5
$$

IAZ064-065-067-068-078-170800-
   EAST CENTRAL IOWA

CITY           SKY/WX    TMP DP  RH WIND       PRES   REMARKS
DAVENPORT      FAIR      16   9  74 S5        30.23F WCI   9
IOWA CITY      FAIR      15   7  70 CALM      30.21F
MT. PLEASANT * CLOUDY    19  12  73 SE7       30.19F WCI  10
MUSCATINE *    FAIR      12   9  85 CALM      30.23F
QUAD CITIES    FAIR      13   8  81 CALM      30.22F
$$

IAZ062-063-075>077-085>089-095>099-170800-
   SOUTHEAST IOWA

CITY           SKY/WX    TMP DP  RH WIND       PRES   REMARKS
BURLINGTON     CLOUDY    20  12  71 SE6       30.20F WCI  12
FAIRFIELD *    PTCLDY    18  10  73 SE7       30.17F WCI   8
FORT MADISON * CLOUDY    21  16  79 SE5       30.20F WCI  15
KEOKUK *       PTCLDY    21  16  79 SE7       30.20F WCI  13
OSKALOOSA *    FAIR      17  10  75 SE12      30.15F WCI   4
OTTUMWA        CLOUDY    21  10  62 S10       30.15F WCI  10
WASHINGTON *   CLOUDY    16  14  93 S9        30.20F WCI   4
$$

ABBREVIATIONS USED IN REMARKS
   TC - TEMPERATURES IN CELSIUS
  WCI - WIND CHILL INDEX
   HX - HEAT INDEX
  VSB - VISIBILITY
$$





USA.gov is the U.S. government's official web portal to all federal, state and local government web resources and services.